RH
9 5 4 3 3 3 3 3 3 3 2 3 3 3 3 3 3 4 3 3 3 3 4 6 3 3 4 9 11 27 25 34 33 44 59 60 67 73 68 82 89 86 80
14 8 4 4 3 4 4 4 3 3 3 3 3 3 3 3 3 4 4 4 4 6 9 10 12 10 15 21 18 28 31 26 30 43 51 71 81 89 86 88 65 67 60
13 12 9 5 4 4 4 4 4 4 3 3 3 3 4 4 4 4 4 5 4 8 16 20 22 29 26 30 34 29 27 24 27 34 56 85 93 91 86 85 70 43 36
18 15 10 5 5 5 5 5 4 4 4 4 4 4 4 5 4 4 5 8 13 15 23 39 39 31 34 34 34 37 27 20 28 41 65 75 74 62 61 64 65 55 40
18 17 12 7 6 6 6 6 6 5 4 5 4 4 5 6 5 4 5 13 15 13 12 27 40 27 33 36 34 39 44 37 31 39 42 57 68 70 64 52 55 62 64
21 18 15 9 6 6 6 7 7 5 5 5 5 5 6 6 6 6 5 11 13 13 10 13 22 26 33 36 49 51 60 67 67 36 27 43 57 50 58 70 62 65 79
23 20 18 13 10 8 8 7 7 6 5 6 5 5 5 6 7 7 6 10 13 21 16 15 24 32 35 36 41 43 53 76 90 76 86 82 65 67 60 68 72 72 85
21 22 22 18 14 9 8 7 8 8 7 5 6 5 5 6 7 7 7 8 14 23 29 22 26 30 38 43 46 37 56 95 97 98 82 84 84 85 88 83 87 87 91
22 24 24 22 18 12 9 8 8 10 9 6 6 6 5 6 7 7 7 8 13 24 28 26 29 33 36 39 32 33 45 94 89 98 96 78 67 83 95 95 96 98 95
23 23 25 26 24 17 12 9 9 10 10 8 6 7 7 6 7 8 6 7 17 17 27 42 42 38 38 40 45 38 46 79 88 93 96 60 84 95 90 96 97 99 94
23 20 26 28 26 22 16 12 9 9 10 11 8 7 8 6 7 7 5 7 11 14 14 22 38 46 46 41 41 36 40 54 87 93 98 95 62 90 98 95 96 89 81
11 14 23 27 27 24 22 17 13 9 9 10 11 9 8 8 6 7 5 9 15 11 10 14 29 35 34 33 33 41 35 46 69 93 99 99 90 82 96 96 97 97 58
12 14 20 26 28 26 26 22 16 12 9 10 11 12 9 9 8 7 6 7 8 12 10 18 35 34 29 29 20 29 40 42 43 73 99 96 93 76 90 95 84 94 65
20 12 16 22 26 27 27 29 23 17 12 10 11 13 11 10 10 8 7 7 9 9 11 8 20 32 30 35 16 17 25 43 38 39 80 95 95 94 96 96 92 93 60
27 23 20 20 24 28 28 31 30 21 16 12 12 13 13 11 12 11 9 7 8 10 12 10 8 15 28 20 17 23 21 24 26 33 46 94 94 100 92 97 93 93 71
33 32 30 25 26 27 28 35 36 27 22 17 13 14 16 14 13 13 13 12 8 9 13 14 11 10 12 12 12 11 20 29 29 37 72 76 88 93 98 97 97 93 86
39 39 36 31 30 32 31 31 41 33 23 21 15 15 16 16 15 16 16 16 12 9 12 18 16 12 11 11 9 9 19 23 39 44 48 50 64 79 96 98 97 96 92
46 50 60 36 39 43 47 42 44 39 24 22 17 17 18 18 18 18 18 18 15 12 11 20 21 16 12 11 7 8 16 17 33 40 47 55 59 90 98 97 92 93 61
52 54 58 56 52 55 57 55 47 41 27 23 19 21 21 21 20 22 19 18 17 15 12 14 25 20 15 11 6 10 15 18 18 28 37 38 94 96 96 97 94 95 89
55 53 46 46 47 47 45 48 44 40 28 25 24 25 26 23 20 23 22 20 20 18 15 12 22 25 17 12 7 11 16 18 19 26 25 42 91 98 97 93 96 96 80
84 59 47 42 40 38 37 38 36 38 35 33 30 31 30 25 21 24 23 22 21 22 20 14 21 28 20 14 8 8 15 16 18 21 30 83 96 97 96 86 100 62 66
77 59 47 42 40 38 35 33 30 30 29 40 29 33 32 29 30 28 26 26 27 24 20 15 22 30 23 14 8 8 13 15 20 27 31 87 98 94 91 88 91 65 68
71 64 55 58 56 49 41 33 29 27 23 58 77 89 91 82 44 33 29 27 34 31 23 18 18 29 25 15 9 10 13 16 26 34 52 83 97 97 99 96 85 82 70
81 78 67 65 58 57 49 41 43 26 22 70 100 97 84 67 59 32 31 30 39 38 27 20 16 33 28 16 10 11 12 15 27 40 52 72 95 96 97 89 76 82 70
77 73 68 60 55 53 50 48 46 58 67 49 55 87 59 55 42 35 31 29 40 44 33 22 14 29 31 18 11 9 11 15 20 57 86 89 84 97 97 90 84 66 64
82 80 70 63 56 52 50 49 51 62 72 94 95 79 43 50 49 43 32 31 39 43 37 25 17 34 34 18 11 8 9 13 18 57 97 98 100 94 98 98 96 92 80
Wind_Speed
16 13 13 13 11 10 8 7 7 8 9 10 12 14 15 16 17 16 17 17 15 16 17 16 15 14 15 16 19 21 23 23 23 23 23 22 21 20 20 19 19 18 16
20 20 16 14 14 13 11 11 10 9 9 10 12 13 16 17 17 16 17 17 15 15 14 15 14 15 15 16 18 20 22 24 25 25 24 25 22 19 19 18 15 15 15
21 22 25 18 15 15 14 13 13 11 9 11 12 13 14 17 18 16 17 16 15 14 14 14 13 13 16 18 18 18 20 22 25 26 25 25 24 22 21 20 18 17 16
24 23 26 23 18 18 16 15 15 12 10 11 11 12 14 17 17 17 15 14 14 14 13 13 13 14 14 16 17 17 19 20 23 26 27 28 26 26 25 23 20 19 17
25 24 27 24 22 20 19 18 16 14 12 11 10 12 13 15 18 17 16 13 13 13 16 14 14 14 13 15 16 17 18 20 22 24 29 30 27 23 23 23 22 20 17
28 25 29 26 24 22 21 20 17 15 14 13 13 12 12 14 16 18 17 15 15 16 16 14 14 13 14 14 15 16 17 18 20 23 28 30 29 24 23 20 21 19 17
30 27 29 28 28 24 23 21 20 17 15 15 16 14 13 14 16 17 17 16 16 17 16 14 13 14 16 17 17 17 19 22 22 23 24 23 24 21 24 23 20 19 18
26 26 28 29 29 28 25 23 22 19 18 18 18 17 15 16 18 17 16 16 16 17 16 15 16 16 18 19 19 20 20 22 24 23 22 21 21 21 29 22 20 19 20
26 25 27 30 30 30 27 25 24 21 20 19 18 19 18 18 18 19 18 16 16 17 18 17 18 18 19 21 18 19 16 17 16 19 25 18 22 19 26 23 19 17 15
30 27 26 30 30 30 29 27 26 24 20 20 19 19 18 19 19 19 18 16 16 17 18 19 19 19 19 21 18 18 17 17 15 17 15 20 22 22 23 20 18 16 17
33 30 28 30 29 30 29 27 27 26 23 21 21 18 19 19 19 19 17 16 16 17 19 21 22 22 21 20 19 19 18 17 16 18 19 20 26 24 24 19 19 17 17
36 35 33 30 30 28 28 29 28 28 26 23 21 20 19 19 20 19 16 15 15 17 18 20 22 23 24 21 19 19 19 16 18 18 22 22 26 27 22 17 18 24 20
45 37 34 31 32 28 27 28 28 29 28 26 23 22 20 20 20 21 17 16 16 17 18 20 21 23 23 22 19 17 21 19 17 18 18 20 23 24 28 25 19 24 22
41 42 37 33 32 29 28 28 27 27 29 29 25 23 20 20 20 21 20 18 16 17 18 19 21 22 22 20 21 18 21 21 19 18 20 21 22 23 26 26 25 24 23
39 33 33 35 34 32 32 29 26 27 29 30 26 25 21 20 20 21 21 20 18 17 18 19 20 22 22 22 22 22 22 24 21 22 20 21 21 27 24 28 25 26 25
39 34 31 35 35 34 32 29 27 28 29 30 28 26 23 21 20 21 22 22 20 18 17 19 20 20 22 24 25 26 25 26 25 23 19 22 25 27 29 32 31 30 32
43 35 33 35 34 34 34 33 29 29 31 29 30 28 26 24 22 21 22 23 21 20 18 18 22 22 24 24 26 26 24 26 25 27 26 27 28 27 31 36 38 29 27
47 38 31 35 35 35 34 34 34 32 31 30 30 31 27 27 25 23 22 23 24 22 21 19 21 24 25 25 28 27 24 24 24 29 28 28 30 25 35 37 28 27 28
47 41 37 37 38 38 36 35 35 35 33 33 31 30 28 30 29 25 23 24 26 25 22 20 21 24 26 27 28 27 26 25 26 27 29 27 26 25 32 36 29 31 33
47 43 41 41 41 40 39 37 35 32 34 36 34 30 30 30 32 27 25 26 26 27 26 22 21 25 26 28 28 28 26 25 24 27 30 31 29 29 33 31 30 30 27
51 46 42 42 41 39 38 37 36 33 34 38 37 34 30 31 32 29 27 28 29 28 28 24 23 25 26 29 30 28 27 26 28 28 26 26 27 34 32 29 30 30 30
55 49 44 43 42 35 33 33 36 35 35 38 38 36 27 32 33 32 29 30 30 30 31 27 24 25 26 29 31 28 27 27 26 26 25 26 34 32 28 28 30 31 30
56 48 44 43 41 34 32 34 34 35 38 36 32 35 33 33 36 34 34 33 30 31 32 29 27 26 27 28 30 28 26 25 28 25 22 26 35 36 38 31 33 35 31
51 48 44 45 41 36 35 35 33 35 38 36 35 35 36 31 37 38 35 32 31 32 32 32 29 28 28 28 30 29 27 26 26 29 33 32 37 38 34 30 33 35 34
49 46 43 41 41 38 37 37 37 36 37 39 39 39 35 37 38 41 36 33 33 32 32 32 31 29 29 28 30 29 28 27 26 30 34 34 41 39 38 33 29 32 34
52 50 45 41 43 44 41 40 36 38 38 40 39 44 36 38 42 43 41 37 36 34 34 33 32 30 29 29 30 29 28 29 25 27 25 24 41 44 41 38 30 31 35
Wind_Direction
293 284 276 275 286 289 292 298 309 320 331 337 332 329 332 332 330 329 322 312 303 295 292 293 290 277 273 267 260 260 256 252 249 250 251 255 257 250 255 261 265 261 262
290 299 287 285 281 281 281 287 296 308 325 333 329 333 332 334 334 336 325 315 307 300 298 297 297 292 279 272 266 260 258 256 253 248 248 251 253 250 254 256 254 250 248
291 298 292 284 279 276 281 284 286 300 313 322 323 331 336 340 338 332 325 317 309 299 297 292 290 288 294 290 282 273 263 259 256 256 253 249 248 252 256 256 254 251 246
287 288 283 281 280 277 279 285 284 295 296 304 315 326 334 338 331 327 322 314 309 302 295 296 283 289 287 289 289 284 272 260 254 253 252 251 254 255 256 256 253 250 246
277 279 281 282 281 277 278 285 284 288 287 292 299 311 329 332 329 324 319 310 306 303 295 288 286 293 289 289 290 288 283 273 263 256 256 255 250 251 252 251 252 248 241
271 275 276 280 279 276 274 277 278 278 278 282 286 296 316 320 322 322 317 307 309 306 302 294 292 292 287 282 283 289 285 273 271 267 257 255 255 248 246 246 244 245 237
263 268 274 279 281 278 275 270 272 273 273 279 282 285 299 309 313 316 313 305 307 309 310 297 292 287 284 284 288 284 285 274 267 266 260 256 257 248 242 241 238 237 235
255 267 276 279 281 279 278 271 272 274 277 277 281 283 289 299 305 310 307 303 308 307 306 296 287 286 286 290 291 292 294 287 274 271 253 257 254 247 232 229 230 230 230
255 257 268 274 277 278 277 276 274 277 277 278 279 283 287 292 303 308 308 304 307 305 306 300 290 288 288 291 290 288 290 291 271 273 269 240 249 251 216 221 223 228 241
246 251 259 268 274 277 278 278 275 274 276 276 278 282 285 290 300 306 310 309 305 302 304 298 294 289 289 288 293 297 297 288 282 270 267 243 241 243 256 256 223 226 239
244 249 252 262 268 274 277 278 276 275 275 275 281 283 284 288 295 305 312 313 306 302 299 298 296 293 288 290 293 292 295 293 284 274 278 258 245 245 256 260 223 221 234
259 249 248 256 261 267 273 276 277 276 278 277 281 287 286 285 290 300 308 313 310 300 297 297 295 291 292 297 297 291 291 281 284 276 275 259 248 244 242 245 235 237 230
264 253 248 249 258 262 269 275 277 278 279 279 281 286 287 285 289 295 302 309 311 305 296 293 293 294 296 302 304 293 288 286 279 275 278 254 242 244 246 242 251 226 227
263 255 251 250 262 263 264 270 276 278 277 278 281 283 286 286 289 292 299 303 308 307 298 294 291 292 293 296 299 294 292 282 283 279 263 258 252 250 255 241 230 228 229
252 256 257 258 260 263 263 266 272 275 275 276 279 281 283 284 286 289 295 299 304 307 305 299 294 290 289 291 289 290 285 282 282 272 269 258 250 258 254 241 231 224 225
252 256 258 255 259 264 264 263 269 270 272 274 277 278 281 282 281 288 292 295 299 303 304 302 295 289 287 287 287 285 285 286 277 270 261 261 255 252 247 243 247 232 227
250 249 252 251 254 259 263 264 268 268 267 270 273 276 278 279 280 283 289 293 294 297 298 299 295 292 288 288 288 289 285 285 278 265 266 256 260 255 244 239 241 242 223
250 243 242 244 251 256 259 261 263 265 263 263 267 272 274 277 277 280 282 289 290 291 294 296 297 292 288 289 288 285 286 288 275 271 264 256 265 245 236 227 234 243 220
251 249 242 239 247 251 255 258 259 263 263 260 261 265 270 273 277 277 279 283 288 289 291 292 293 290 289 289 286 284 288 289 275 269 264 266 244 239 229 221 235 246 234
250 248 241 238 241 247 249 252 258 258 261 260 257 260 262 268 274 275 276 278 282 288 288 288 287 290 289 288 287 282 287 286 283 266 270 270 245 226 222 232 241 232 217
246 243 239 239 237 242 247 249 254 253 250 254 256 249 258 267 273 272 272 276 278 284 286 282 283 286 287 287 289 282 283 282 287 277 267 262 218 215 222 233 239 219 225
238 237 241 244 244 246 252 254 253 251 248 246 252 260 263 267 271 270 270 272 275 281 284 281 279 282 285 285 292 281 284 284 283 274 267 244 214 210 218 228 226 223 224
238 238 239 248 251 246 251 256 256 254 249 248 245 255 248 254 263 264 266 270 274 278 280 279 278 280 283 285 289 284 281 284 277 273 268 265 215 220 227 229 227 226 227
237 237 236 244 249 247 247 251 256 254 247 240 238 239 252 256 260 266 267 270 270 271 275 277 277 278 280 283 288 284 278 283 279 277 269 256 229 223 219 229 229 225 228
230 232 235 242 249 247 243 246 249 252 256 249 247 243 252 256 259 261 262 266 267 266 270 273 275 276 280 283 287 283 277 279 280 284 271 252 221 219 218 226 226 228 227
233 233 234 238 243 247 245 246 244 247 250 250 250 242 246 254 259 263 261 258 261 263 264 268 270 271 276 281 284 285 277 271 277 288 260 238 219 218 217 229 232 234 233